Previsão horária em Celinnyy

Hoje, 31 Julho, Sábado

Tempo Temperatura Precipitação Vento Pressão Humidade
00:00 +25°C° 0 mm 3 m/s 748 mmHg 42%
01:00 +24°C° 0 mm 2 m/s 748 mmHg 44%
02:00 +24°C° 0 mm 2 m/s 748 mmHg 46%
03:00 +23°C° 0 mm 2 m/s 748 mmHg 49%
04:00 +23°C° 0 mm 2 m/s 748 mmHg 50%
05:00 +23°C° 0 mm 2 m/s 748 mmHg 51%
06:00 +23°C° 0 mm 1 m/s 748 mmHg 52%
07:00 +26°C° 0 mm 2 m/s 748 mmHg 46%
08:00 +28°C° 0 mm 2 m/s 748 mmHg 39%
09:00 +30°C° 0 mm 2 m/s 748 mmHg 33%
10:00 +31°C° 0 mm 3 m/s 748 mmHg 30%
11:00 +34°C° 0 mm 3 m/s 748 mmHg 27%
12:00 +35°C° 0 mm 3 m/s 747 mmHg 24%
13:00 +36°C° 0 mm 3 m/s 747 mmHg 24%
14:00 +36°C° 0 mm 3 m/s 747 mmHg 23%
15:00 +37°C° 0 mm 2 m/s 746 mmHg 22%
16:00 +37°C° 0 mm 2 m/s 746 mmHg 23%
17:00 +37°C° 0 mm 2 m/s 746 mmHg 23%
18:00 +37°C° 0 mm 2 m/s 746 mmHg 24%
19:00 +35°C° 0 mm 2 m/s 747 mmHg 28%
20:00 +32°C° 0 mm 2 m/s 747 mmHg 31%
21:00 +30°C° 0 mm 2 m/s 747 mmHg 35%
22:00 +29°C° 0 mm 2 m/s 747 mmHg 37%
23:00 +28°C° 0 mm 2 m/s 747 mmHg 39%

Amanhã, 1 Agosto, Domingo

Tempo Temperatura Precipitação Vento Pressão Humidade
00:00 +27°C° 0 mm 2 m/s 747 mmHg 42%
01:00 +27°C° 0 mm 2 m/s 747 mmHg 43%
02:00 +26°C° 0 mm 1 m/s 747 mmHg 45%
03:00 +26°C° 0 mm 1 m/s 747 mmHg 47%
04:00 +26°C° 0 mm 1 m/s 748 mmHg 47%
05:00 +26°C° 0 mm 1 m/s 748 mmHg 47%
06:00 +26°C° 0 mm 2 m/s 748 mmHg 47%
07:00 +28°C° 0 mm 2 m/s 748 mmHg 43%
08:00 +30°C° 0 mm 2 m/s 748 mmHg 38%
09:00 +33°C° 0 mm 3 m/s 749 mmHg 33%
10:00 +34°C° 0 mm 2 m/s 748 mmHg 30%
11:00 +36°C° 0 mm 2 m/s 748 mmHg 26%
12:00 +37°C° 0 mm 2 m/s 748 mmHg 23%
13:00 +38°C° 0 mm 3 m/s 748 mmHg 22%
14:00 +38°C° 0 mm 3 m/s 747 mmHg 21%
15:00 +39°C° 0 mm 3 m/s 747 mmHg 21%
16:00 +38°C° 0 mm 3 m/s 747 mmHg 21%
17:00 +38°C° 0 mm 3 m/s 747 mmHg 22%
18:00 +38°C° 0 mm 2 m/s 747 mmHg 23%
19:00 +36°C° 0 mm 3 m/s 747 mmHg 28%
20:00 +34°C° 0 mm 4 m/s 747 mmHg 32%
21:00 +32°C° 0 mm 4 m/s 747 mmHg 37%
22:00 +30°C° 0 mm 4 m/s 747 mmHg 41%
23:00 +29°C° 0 mm 3 m/s 747 mmHg 44%

Depois de amanhã, 2 Agosto, Segunda-feira

Tempo Temperatura Precipitação Vento Pressão Humidade
00:00 +28°C° 0 mm 3 m/s 747 mmHg 47%
01:00 +28°C° 0 mm 2 m/s 747 mmHg 48%
02:00 +27°C° 0 mm 2 m/s 747 mmHg 49%
03:00 +27°C° 0 mm 2 m/s 747 mmHg 50%
04:00 +27°C° 0 mm 2 m/s 748 mmHg 51%
05:00 +27°C° 0 mm 2 m/s 748 mmHg 51%
06:00 +27°C° 0 mm 2 m/s 748 mmHg 51%
07:00 +29°C° 0 mm 2 m/s 748 mmHg 44%
08:00 +31°C° 0 mm 2 m/s 748 mmHg 37%
09:00 +34°C° 0 mm 3 m/s 748 mmHg 30%
10:00 +35°C° 0 mm 2 m/s 748 mmHg 29%
11:00 +36°C° 0 mm 2 m/s 748 mmHg 27%
12:00 +37°C° 0 mm 2 m/s 748 mmHg 26%
13:00 +38°C° 0 mm 2 m/s 747 mmHg 26%
14:00 +38°C° 0 mm 2 m/s 747 mmHg 26%
15:00 +39°C° 0 mm 2 m/s 747 mmHg 25%
16:00 +39°C° 0 mm 2 m/s 747 mmHg 26%
17:00 +38°C° 0 mm 3 m/s 747 mmHg 26%
18:00 +38°C° 0 mm 3 m/s 747 mmHg 26%
19:00 +36°C° 0 mm 2 m/s 747 mmHg 29%
20:00 +35°C° 0 mm 2 m/s 747 mmHg 32%
21:00 +32°C° 0 mm 2 m/s 747 mmHg 34%
22:00 +31°C° 0 mm 2 m/s 747 mmHg 36%
23:00 +30°C° 0 mm 2 m/s 747 mmHg 37%

3 Agosto, Terça-feira

Tempo Temperatura Precipitação Vento Pressão Humidade
00:00 +29°C° 0 mm 2 m/s 747 mmHg 39%
01:00 +28°C° 0 mm 2 m/s 747 mmHg 40%
02:00 +28°C° 0 mm 2 m/s 747 mmHg 42%
03:00 +27°C° 0 mm 1 m/s 747 mmHg 43%
04:00 +27°C° 0 mm 1 m/s 748 mmHg 44%
05:00 +27°C° 0 mm 1 m/s 748 mmHg 45%
06:00 +27°C° 0 mm 1 m/s 748 mmHg 46%
07:00 +30°C° 0 mm 1 m/s 748 mmHg 39%
08:00 +32°C° 0 mm 1 m/s 748 mmHg 31%
09:00 +35°C° 0 mm 2 m/s 748 mmHg 24%
10:00 +37°C° 0 mm 2 m/s 748 mmHg 20%
11:00 +38°C° 0 mm 2 m/s 748 mmHg 16%
12:00 +39°C° 0 mm 2 m/s 748 mmHg 12%
13:00 +40°C° 0 mm 2 m/s 748 mmHg 12%
14:00 +40°C° 0 mm 2 m/s 747 mmHg 11%
15:00 +41°C° 0 mm 1 m/s 747 mmHg 11%
16:00 +40°C° 0 mm 1 m/s 747 mmHg 12%
17:00 +40°C° 0 mm 1 m/s 747 mmHg 13%
18:00 +40°C° 0 mm 1 m/s 747 mmHg 14%
19:00 +37°C° 0 mm 1 m/s 747 mmHg 15%
20:00 +35°C° 0 mm 1 m/s 747 mmHg 17%
21:00 +33°C° 0 mm 1 m/s 747 mmHg 18%
22:00 +32°C° 0 mm 1 m/s 748 mmHg 22%
23:00 +31°C° 0 mm 2 m/s 748 mmHg 26%

4 Agosto, Quarta-feira

Tempo Temperatura Precipitação Vento Pressão Humidade
00:00 +30°C° 0 mm 2 m/s 748 mmHg 30%
01:00 +30°C° 0 mm 2 m/s 748 mmHg 33%
02:00 +30°C° 0 mm 3 m/s 748 mmHg 36%
03:00 +29°C° 0 mm 3 m/s 748 mmHg 39%
04:00 +29°C° 0 mm 3 m/s 748 mmHg 42%
05:00 +29°C° 0 mm 3 m/s 749 mmHg 44%
06:00 +28°C° 0 mm 3 m/s 749 mmHg 46%
07:00 +30°C° 0 mm 4 m/s 749 mmHg 43%
08:00 +33°C° 0 mm 5 m/s 749 mmHg 39%
09:00 +35°C° 0 mm 6 m/s 750 mmHg 35%
10:00 +36°C° 0 mm 6 m/s 750 mmHg 32%
11:00 +38°C° 0 mm 6 m/s 750 mmHg 30%
12:00 +39°C° 0 mm 6 m/s 750 mmHg 28%
13:00 +40°C° 0 mm 6 m/s 749 mmHg 27%
14:00 +40°C° 0 mm 5 m/s 749 mmHg 26%
15:00 +40°C° 0 mm 4 m/s 749 mmHg 25%
16:00 +40°C° 0 mm 4 m/s 749 mmHg 26%
17:00 +39°C° 0 mm 3 m/s 749 mmHg 26%
18:00 +38°C° 0 mm 3 m/s 749 mmHg 27%
19:00 +36°C° 0 mm 4 m/s 749 mmHg 30%
20:00 +35°C° 0 mm 4 m/s 750 mmHg 32%
21:00 +33°C° 0 mm 5 m/s 750 mmHg 35%
22:00 +32°C° 0 mm 5 m/s 750 mmHg 37%
23:00 +32°C° 0 mm 5 m/s 750 mmHg 39%

5 Agosto, Quinta-feira

Tempo Temperatura Precipitação Vento Pressão Humidade
00:00 +30°C° 0 mm 5 m/s 750 mmHg 41%
01:00 +30°C° 0 mm 4 m/s 750 mmHg 43%
02:00 +29°C° 0 mm 4 m/s 750 mmHg 45%
03:00 +29°C° 0 mm 3 m/s 750 mmHg 47%
04:00 +29°C° 0 mm 3 m/s 750 mmHg 47%
05:00 +28°C° 0 mm 3 m/s 750 mmHg 48%
06:00 +28°C° 0 mm 3 m/s 750 mmHg 48%
07:00 +29°C° 0 mm 3 m/s 750 mmHg 44%
08:00 +32°C° 0 mm 4 m/s 750 mmHg 41%
09:00 +33°C° 0 mm 4 m/s 750 mmHg 37%
10:00 +35°C° 0 mm 5 m/s 750 mmHg 33%
11:00 +36°C° 0 mm 5 m/s 750 mmHg 30%
12:00 +39°C° 0 mm 5 m/s 749 mmHg 26%
13:00 +39°C° 0 mm 5 m/s 749 mmHg 25%
14:00 +40°C° 0 mm 6 m/s 749 mmHg 24%
15:00 +40°C° 0 mm 6 m/s 748 mmHg 23%
16:00 +40°C° 0 mm 6 m/s 748 mmHg 24%
17:00 +40°C° 0 mm 5 m/s 748 mmHg 24%
18:00 +39°C° 0 mm 5 m/s 748 mmHg 25%
19:00 +36°C° 0 mm 5 m/s 748 mmHg 28%
20:00 +35°C° 0 mm 4 m/s 748 mmHg 31%
21:00 +33°C° 0 mm 4 m/s 748 mmHg 33%
22:00 +31°C° 0 mm 3 m/s 748 mmHg 35%
23:00 +30°C° 0 mm 3 m/s 748 mmHg 36%
Mostrar mais

Necessitamos do seu Consentimento

A Meteoprog e os seus Fornecedores de Serviços podem armazenar e aceder a dados pessoais como cookies, identificadores do dispositivo ou outras tecnologias semelhantes existentes no seu dispositivo e processar estes dados para personalizar conteúdos e anúncios, assim como funcionalidades nas redes sociais e análise de tráfego.

  • Armazenar e/ou aceder a informações no seu dispositivo

    Os cookies, identificadores do dispositivo ou outras informações podem ser armazenados ou acedidos no seu dispositivo, para os fins acima indicados.

  • Anúncios e conteúdos personalizados, medição de anúncios e conteúdos, dados sobre o público-alvo e desenvolvimento de produtos

    Os anúncios e os conteúdos podem ser personalizados com base num perfil. Podem ser adicionados dados adicionais para uma maior personalização dos anúncios e dos conteúdos. A eficácia dos anúncios e dos conteúdos pode ser medida. Podem ser obtidas informações sobre o público que visualizou os anúncios e os conteúdos. Estes dados podem ser usados para desenvolver ou melhorar sistemas, softwares ou a experiência do utilizador.

Ao clicar em "Eu concordo”, permitirá o uso de cookies, identificadores do dispositivo e web beacons mencionados ou outras tecnologias semelhantes. As configurações do navegador do seu dispositivo podem ser alteradas.

Para certos fins, podem ser invocados interesses legítimos ao invés de consentimento. Pode ler mais informação sobre este assunto na nossa Política de Privacidade e Cookies.